Temperature
17 17 16 15 15 14 14 13 13 13 12 12 12 11 11 11 10 10 10 10 10 10 11 11 11 11 11 11 12 12 12 12 12 12 12 12 12 12 13 14 14 14 14
18 17 16 16 15 15 14 13 13 13 12 12 12 11 11 11 10 10 10 10 10 10 10 10 11 11 11 11 11 11 11 12 12 12 12 12 11 12 12 12 12 13 13
19 18 17 16 16 15 14 14 13 13 12 12 12 11 11 11 10 10 10 10 10 11 11 11 11 11 11 11 11 11 11 11 12 12 12 12 11 11 11 11 11 12 12
19 18 17 17 16 15 14 14 13 13 12 12 12 11 11 10 10 10 10 11 11 11 11 11 12 12 12 12 11 11 11 12 12 12 12 11 11 10 10 11 11 11 11
19 18 18 17 16 15 15 14 13 13 12 12 12 11 11 10 10 11 11 11 11 11 12 12 12 12 12 12 12 11 11 12 12 12 12 11 11 10 10 10 11 11 11
19 19 18 17 16 15 15 14 13 13 12 12 12 11 11 10 11 11 11 12 12 12 12 12 12 12 12 12 12 12 11 12 12 12 11 11 11 10 10 10 11 11 11
19 19 18 17 16 15 15 14 13 13 12 12 11 11 11 11 11 11 12 12 12 12 12 12 12 12 12 12 12 12 11 11 11 11 11 11 11 10 10 11 11 11 11
19 18 18 17 16 15 15 14 13 12 12 12 11 11 10 11 11 11 11 11 11 11 11 11 12 12 12 12 11 11 11 11 11 11 11 11 11 11 11 11 11 11 11
18 18 18 17 16 15 14 14 13 12 12 11 11 11 11 10 11 11 11 11 11 11 11 11 11 11 11 11 11 11 11 11 11 11 11 11 11 11 11 11 11 11 11
18 17 17 17 16 15 14 13 13 12 12 11 11 11 10 10 10 10 10 10 10 11 11 11 11 11 11 11 11 11 11 11 11 11 11 11 11 11 11 11 11 11 11
17 17 16 16 16 15 14 13 12 12 12 11 11 11 10 10 10 10 10 10 10 10 10 10 10 11 11 11 11 11 11 11 11 10 10 11 11 11 10 10 10 11 11
17 17 16 16 15 15 14 13 12 12 11 11 11 10 10 10 10 10 10 9 9 9 9 10 10 10 10 10 10 10 10 10 10 10 10 10 10 10 10 10 10 10 10
17 17 16 15 15 14 14 13 13 12 11 11 10 10 10 10 10 10 10 9 9 9 9 9 9 9 9 9 9 9 10 10 10 10 10 10 10 10 9 9 9 9 9
17 17 16 15 15 14 14 13 13 12 11 11 10 10 10 10 9 9 9 9 9 8 8 8 9 9 9 9 9 9 9 9 9 9 9 9 9 9 9 9 9 9 8
17 16 16 15 15 14 13 13 12 12 11 11 10 10 10 10 9 9 9 9 8 8 8 8 8 8 8 8 8 8 8 8 8 8 8 8 8 8 8 8 8 8 8
17 16 16 15 14 14 13 12 12 11 11 10 10 10 10 9 9 9 9 8 8 8 8 8 7 7 7 7 7 7 7 7 7 7 7 8 8 8 8 8 8 8 7
17 16 15 15 14 13 13 12 12 11 11 10 10 10 9 9 9 9 8 8 8 8 7 7 7 7 7 7 7 7 7 7 7 7 7 8 8 8 8 8 7 7 7
16 16 15 14 14 13 12 12 11 11 11 10 10 9 9 9 9 9 8 8 8 8 7 7 7 7 7 7 7 7 7 7 7 7 8 8 8 8 8 8 8 7 7
16 15 15 14 14 13 12 12 11 11 10 10 10 9 9 9 9 9 8 8 8 8 7 7 7 7 7 7 6 6 7 7 7 8 8 8 8 8 8 8 8 7 7
15 15 15 14 13 13 12 12 11 11 10 10 10 9 9 9 9 8 8 8 8 8 7 7 7 7 7 6 6 6 6 7 7 8 8 8 8 8 7 7 7 7 7
15 14 14 14 13 12 12 12 11 11 10 10 10 9 9 9 9 8 8 8 8 7 7 7 7 7 6 6 6 6 7 7 7 7 7 7 7 7 7 6 6 6 6
14 14 14 13 13 12 12 12 11 11 10 10 10 9 9 9 9 8 8 8 7 7 7 7 6 6 6 6 5 4 4 5 6 6 6 6 6 6 6 5 5 5 5
14 14 14 13 13 12 12 12 11 11 10 10 10 9 9 9 8 8 8 7 7 7 7 6 6 6 6 6 5 4 3 4 4 4 4 5 5 5 5 5 5 5 5
14 13 13 13 13 12 12 12 11 11 11 10 10 9 9 8 8 8 7 7 7 6 6 6 6 5 5 5 5 4 4 3 2 2 3 3 4 4 4 4 4 5 5
13 13 13 13 12 12 12 11 11 11 10 10 9 9 8 8 8 7 7 7 6 6 6 6 5 5 5 5 4 4 4 3 3 2 1 2 3 3 3 3 3 4 4
12 12 12 12 12 12 12 11 11 11 10 9 9 9 8 8 7 7 7 6 6 6 6 5 5 5 5 4 4 4 3 3 2 2 1 1 1 2 2 2 3 3 3
Wind_Speed
7 16 20 19 18 16 15 14 14 14 13 14 13 13 13 12 12 12 12 12 12 12 12 13 13 14 14 15 15 14 15 15 16 17 17 17 16 16 16 15 15 15 16
11 22 22 21 19 17 16 15 14 14 13 13 12 12 12 12 11 11 11 11 11 12 12 12 13 13 13 13 13 13 13 14 14 15 16 15 15 15 15 15 14 14 15
15 23 23 22 20 18 17 16 15 14 13 12 12 12 12 11 11 11 11 11 11 11 11 12 12 12 12 12 11 11 12 13 13 14 15 15 13 13 13 13 14 14 14
20 22 22 23 21 19 18 16 15 14 13 12 12 11 11 10 10 10 10 10 10 10 11 11 11 11 11 10 10 10 11 12 12 13 14 14 12 11 12 12 13 13 13
19 22 23 24 22 20 18 17 16 15 13 12 11 11 10 10 10 9 9 9 9 9 9 10 10 10 9 9 9 10 11 12 13 13 13 13 12 10 10 10 11 11 11
15 21 23 25 22 21 19 18 16 15 14 13 11 10 10 10 9 9 8 8 8 8 8 8 8 8 8 8 8 8 9 11 11 11 11 11 10 8 8 8 8 8 9
13 20 23 25 23 21 20 18 17 15 14 13 12 11 10 9 8 8 7 7 6 6 6 6 7 7 6 6 6 6 7 8 9 8 8 8 7 6 6 6 6 6 7
14 18 21 24 23 22 20 19 18 16 15 13 12 11 10 9 8 7 6 6 5 5 4 4 4 4 4 4 5 5 5 6 6 6 4 4 4 4 4 4 5 5 5
15 16 17 21 22 22 21 19 18 17 15 14 13 11 10 9 8 7 7 6 5 4 3 2 2 2 2 2 2 3 3 4 4 3 3 3 4 4 4 3 3 4 4
10 11 14 17 19 19 20 20 19 17 16 15 13 12 11 10 9 8 8 7 6 5 3 2 2 1 1 2 2 3 3 3 3 4 4 6 6 6 6 6 6 6 6
9 9 11 13 16 17 18 18 19 18 17 16 14 13 12 10 9 8 9 9 8 7 5 5 4 4 4 4 5 5 5 5 5 6 7 8 9 9 9 9 9 9 9
12 11 10 11 14 15 16 16 16 16 16 15 14 14 13 11 10 9 10 11 10 9 8 7 7 7 6 6 7 8 8 8 8 9 10 11 12 12 12 12 12 13 13
12 12 12 12 15 15 12 13 13 13 13 14 14 14 14 12 11 10 10 11 12 10 9 8 8 8 8 9 9 10 11 12 12 12 13 13 14 15 15 15 15 15 16
10 12 13 12 12 14 14 12 12 11 11 11 13 15 13 10 9 9 10 11 11 11 9 9 9 10 11 12 12 12 13 14 15 15 16 15 16 17 18 18 18 18 18
10 11 13 12 11 12 11 10 11 11 11 13 13 14 13 10 7 9 9 10 11 11 10 10 10 10 10 12 12 12 13 15 16 16 17 17 18 19 20 21 21 21 21
9 10 11 12 11 12 9 8 9 11 12 13 13 14 14 12 10 8 7 8 10 11 11 11 11 10 9 9 9 10 12 13 15 16 18 19 20 22 23 23 23 23 23
7 8 10 11 10 10 9 9 9 11 11 10 11 14 14 13 12 10 7 6 9 10 10 9 9 8 6 6 6 8 10 11 13 15 17 18 19 20 23 24 25 25 25
7 7 8 9 10 9 8 8 8 9 8 8 9 10 11 11 11 9 6 5 8 7 6 4 3 3 4 5 5 5 7 9 11 14 16 17 17 18 20 24 25 26 26
7 8 8 8 9 9 7 7 7 7 6 6 6 6 6 7 8 7 5 5 6 4 3 3 3 3 4 5 5 6 5 5 8 12 13 16 17 18 19 21 24 25 25
6 8 8 8 8 8 6 5 4 4 3 4 4 4 4 4 5 5 4 4 4 2 2 2 3 3 3 4 5 6 6 7 7 7 10 13 15 16 17 18 19 20 22
7 8 7 8 7 7 5 4 4 3 2 2 2 2 2 3 3 3 2 2 2 2 3 3 2 3 3 2 3 5 6 6 7 6 6 6 9 13 14 15 16 16 17
6 7 7 8 7 6 5 4 3 3 2 1 1 2 1 1 1 2 2 2 2 1 2 2 2 2 2 1 1 4 5 5 4 4 4 5 6 7 8 11 11 13 16
6 7 7 7 7 7 6 5 5 4 3 2 2 1 2 1 1 1 2 2 1 2 3 3 3 3 4 3 3 3 3 4 5 4 5 6 6 5 5 9 12 15 17
6 6 7 7 7 7 7 6 6 4 3 2 1 1 2 2 1 1 1 1 1 1 2 3 3 3 3 4 3 4 6 5 5 5 4 5 6 7 8 7 10 15 18
6 7 7 8 7 6 7 7 7 4 3 1 1 1 2 3 3 2 1 1 1 1 2 3 3 3 3 4 4 4 4 4 6 7 10 6 5 6 7 7 9 13 17
6 6 7 8 6 6 7 7 7 6 5 3 2 1 1 2 2 3 2 1 2 2 3 4 4 5 4 5 5 5 5 5 5 6 9 11 10 7 7 7 8 10 16
Wind_Direction
190 180 173 165 161 156 151 144 135 127 120 115 110 106 103 100 95 91 87 82 77 73 71 68 66 64 65 65 65 64 63 59 56 53 52 58 63 64 63 61 55 50 54
164 173 172 167 163 160 154 147 139 131 125 120 115 112 108 104 99 95 90 86 81 77 74 71 69 66 66 67 67 66 65 64 62 56 49 44 55 61 60 58 58 56 55
155 168 170 168 166 162 157 151 145 138 132 128 123 118 113 109 105 99 94 89 84 80 76 73 72 70 68 68 68 67 64 63 66 59 46 34 41 59 59 57 57 57 56
158 167 168 169 168 165 161 156 152 146 141 136 132 126 121 116 111 105 98 93 88 83 79 77 76 74 71 69 69 65 62 61 65 59 45 34 32 55 57 56 56 56 55
159 166 169 170 170 168 164 160 157 153 149 143 140 135 130 123 116 110 103 98 93 88 84 81 78 77 74 71 69 62 61 64 64 60 49 37 28 52 55 53 52 52 51
159 165 171 171 172 170 167 164 162 159 156 151 148 144 138 130 123 115 110 105 99 95 91 86 81 77 74 72 68 61 60 64 63 61 50 37 25 48 53 52 51 48 46
160 167 172 172 173 172 170 169 167 165 163 159 156 153 148 142 135 128 123 117 110 102 96 91 87 80 73 70 65 57 54 57 60 60 50 33 22 39 45 42 39 38 37
161 168 174 175 175 175 174 173 172 171 169 166 164 163 159 154 149 145 141 135 129 119 107 96 89 85 77 66 57 47 42 43 50 49 39 18 8 15 27 24 16 14 17
162 167 174 177 177 178 177 177 177 177 176 174 174 172 170 168 168 166 163 161 158 150 140 126 104 86 66 44 28 20 20 25 33 11 343 318 313 322 335 338 332 331 332
161 168 172 175 176 178 179 181 181 181 181 180 181 179 178 180 185 185 182 185 187 189 190 197 215 251 292 310 319 323 330 339 334 314 296 282 283 291 294 295 295 294 293
168 173 172 173 175 177 179 183 184 185 186 185 186 184 184 186 193 199 194 202 207 211 218 229 243 258 270 278 288 293 294 290 292 287 282 277 279 284 286 285 285 284 282
179 182 178 176 175 175 181 185 185 186 189 188 188 187 188 190 198 207 207 213 218 221 230 243 254 263 270 268 275 282 278 271 270 272 274 275 280 284 285 284 282 280 279
182 181 182 181 178 177 180 180 183 185 188 190 191 191 192 195 202 210 215 221 223 223 229 244 259 262 259 259 264 268 267 262 261 264 268 272 280 285 286 285 283 281 279
181 186 183 181 179 181 179 180 183 184 188 191 196 197 195 195 202 206 209 213 213 216 222 235 246 255 257 259 259 260 260 256 257 261 265 268 276 283 286 286 285 283 281
185 185 183 181 180 179 178 181 184 186 190 195 200 203 202 199 204 206 208 208 212 218 224 231 239 247 252 257 259 255 254 255 257 260 263 267 274 281 284 285 284 284 283
187 182 177 178 176 172 174 176 182 187 192 197 203 206 206 205 204 203 209 211 216 222 227 231 234 237 242 248 255 254 253 256 259 261 264 267 273 279 283 284 285 284 284
180 169 167 171 168 166 168 172 178 186 190 196 204 209 208 207 206 204 208 212 220 228 233 236 241 240 244 247 252 259 260 261 264 267 270 270 271 276 281 283 284 284 284
154 152 157 159 158 160 159 162 165 173 178 190 199 205 210 211 211 207 209 219 227 228 229 232 237 249 254 257 262 265 266 269 270 272 273 271 271 271 276 281 283 284 284
142 142 140 139 146 150 143 140 141 147 153 165 172 182 196 203 207 204 211 225 232 230 235 243 246 244 262 270 272 272 268 265 269 274 272 273 273 272 272 278 282 283 284
118 124 125 125 131 129 120 111 105 103 111 127 144 167 184 198 208 207 215 228 228 221 242 248 259 259 260 270 286 285 275 267 264 264 269 277 279 279 278 277 279 282 285
104 112 118 122 128 127 123 123 120 120 105 86 103 141 174 201 214 210 219 231 220 219 244 253 261 277 279 280 305 303 287 274 272 268 269 275 279 284 287 285 282 280 283
117 116 118 122 127 129 128 127 124 122 110 105 69 73 103 171 202 201 205 216 224 231 261 264 252 271 276 254 261 312 317 320 319 281 273 268 270 285 293 297 295 290 285
131 135 130 127 124 122 121 109 91 74 58 46 28 0 355 49 198 209 215 219 234 223 254 262 250 243 269 274 204 223 279 286 304 280 270 267 278 282 283 289 290 291 290
151 138 128 126 122 121 121 125 129 133 145 181 194 310 343 11 7 320 241 229 246 243 259 265 252 240 240 267 267 230 231 246 278 299 284 277 276 274 274 279 282 284 284
149 141 134 125 121 121 120 127 126 126 141 128 81 52 10 359 4 3 6 357 314 289 276 277 278 261 237 245 251 253 258 257 239 264 288 286 281 262 262 263 270 275 277
145 142 138 132 129 128 126 129 136 141 142 130 114 85 357 343 347 350 348 334 305 291 279 275 269 270 259 255 255 246 246 253 258 256 278 289 287 276 259 255 260 264 269
Height
1548 1549 1551 1552 1553 1555 1556 1557 1557 1558 1558 1558 1558 1558 1558 1557 1557 1556 1556 1556 1555 1555 1555 1555 1555 1555 1554 1554 1554 1554 1553 1553 1553 1552 1552 1552 1552 1551 1551 1550 1550 1550 1550
1548 1549 1550 1552 1553 1555 1556 1557 1557 1558 1558 1558 1558 1559 1558 1558 1558 1557 1557 1556 1556 1556 1555 1555 1555 1554 1554 1554 1554 1554 1554 1553 1553 1553 1553 1552 1553 1552 1551 1551 1551 1550 1550
1547 1548 1550 1552 1553 1555 1556 1557 1558 1558 1559 1559 1559 1559 1559 1559 1558 1558 1557 1557 1557 1556 1556 1555 1555 1555 1554 1554 1554 1554 1554 1554 1553 1554 1554 1553 1553 1553 1552 1552 1551 1551 1550
1547 1548 1550 1551 1553 1554 1555 1557 1557 1558 1559 1559 1559 1560 1560 1559 1559 1559 1558 1558 1557 1557 1557 1556 1556 1555 1555 1555 1555 1555 1554 1554 1554 1554 1554 1554 1554 1554 1553 1552 1552 1551 1551
1546 1548 1549 1551 1552 1554 1555 1556 1557 1558 1559 1559 1560 1560 1560 1560 1560 1559 1559 1559 1558 1558 1557 1557 1557 1556 1556 1556 1555 1555 1555 1555 1555 1555 1555 1555 1554 1554 1553 1553 1552 1552 1551
1546 1547 1549 1550 1552 1553 1555 1556 1557 1558 1559 1559 1560 1560 1561 1561 1560 1560 1560 1559 1559 1559 1558 1558 1558 1557 1557 1557 1556 1556 1556 1556 1556 1556 1556 1555 1555 1555 1554 1553 1553 1552 1552
1545 1546 1548 1549 1551 1552 1554 1555 1557 1558 1559 1559 1560 1560 1561 1561 1561 1560 1560 1560 1560 1559 1559 1559 1559 1558 1558 1558 1557 1557 1557 1557 1557 1557 1556 1556 1556 1555 1555 1554 1553 1553 1552
1545 1546 1547 1549 1550 1551 1553 1555 1556 1557 1558 1559 1560 1560 1561 1561 1561 1561 1561 1560 1560 1560 1560 1560 1559 1559 1559 1559 1558 1558 1558 1558 1557 1557 1557 1556 1556 1556 1555 1554 1554 1553 1553
1545 1545 1546 1547 1549 1550 1552 1553 1555 1556 1557 1558 1559 1560 1561 1561 1561 1561 1561 1561 1561 1561 1561 1560 1560 1560 1560 1559 1559 1559 1558 1558 1558 1558 1557 1557 1556 1556 1555 1555 1554 1553 1553
1544 1545 1545 1546 1548 1549 1551 1552 1554 1555 1557 1558 1559 1559 1560 1560 1561 1561 1561 1561 1561 1561 1561 1561 1560 1560 1560 1560 1559 1559 1559 1558 1558 1558 1558 1557 1556 1556 1555 1555 1554 1553 1553
1541 1543 1544 1545 1546 1548 1549 1551 1553 1554 1556 1557 1558 1558 1559 1560 1560 1560 1561 1561 1561 1561 1561 1560 1560 1560 1560 1560 1559 1559 1559 1558 1558 1558 1557 1557 1556 1555 1554 1554 1553 1553 1552
1539 1540 1542 1543 1545 1546 1548 1549 1551 1553 1554 1555 1556 1557 1558 1558 1559 1559 1560 1560 1560 1560 1560 1560 1560 1559 1559 1559 1559 1558 1558 1557 1557 1557 1556 1555 1555 1554 1553 1553 1552 1551 1551
1536 1538 1539 1541 1543 1544 1546 1547 1549 1551 1552 1554 1555 1556 1556 1557 1557 1558 1558 1559 1559 1559 1559 1559 1558 1558 1558 1557 1557 1557 1556 1556 1555 1555 1554 1554 1553 1552 1551 1551 1550 1549 1548
1534 1535 1537 1539 1540 1542 1544 1546 1547 1549 1550 1552 1553 1554 1555 1555 1556 1556 1557 1557 1557 1557 1557 1557 1557 1556 1556 1555 1554 1554 1553 1553 1552 1552 1551 1551 1550 1549 1548 1548 1547 1546 1545
1531 1532 1534 1536 1538 1540 1542 1544 1546 1547 1549 1550 1552 1552 1553 1554 1554 1555 1555 1555 1555 1555 1555 1555 1554 1554 1553 1552 1552 1551 1550 1549 1549 1548 1547 1547 1546 1545 1544 1543 1543 1542 1541
1528 1529 1531 1533 1535 1538 1540 1542 1544 1546 1547 1548 1550 1550 1551 1552 1552 1553 1553 1553 1553 1553 1553 1552 1552 1551 1550 1549 1549 1548 1547 1546 1545 1544 1543 1542 1541 1540 1539 1538 1538 1537 1536
1524 1526 1528 1531 1533 1536 1538 1540 1542 1544 1546 1547 1548 1549 1549 1550 1550 1550 1551 1551 1551 1551 1550 1549 1549 1548 1547 1546 1545 1544 1543 1542 1541 1539 1538 1537 1536 1535 1534 1533 1532 1531 1531
1522 1524 1527 1529 1531 1533 1536 1538 1540 1542 1543 1545 1546 1547 1547 1548 1548 1548 1548 1548 1548 1548 1547 1546 1546 1545 1544 1543 1541 1540 1539 1537 1536 1534 1533 1532 1531 1529 1528 1527 1526 1525 1525
1520 1522 1525 1527 1529 1532 1534 1537 1539 1540 1542 1543 1544 1544 1545 1545 1545 1545 1545 1545 1545 1544 1544 1543 1542 1541 1540 1538 1537 1535 1533 1532 1530 1529 1528 1527 1525 1524 1523 1522 1521 1520 1519
1518 1521 1523 1526 1528 1530 1533 1535 1537 1538 1540 1540 1541 1542 1542 1542 1542 1542 1542 1542 1541 1541 1540 1539 1538 1537 1536 1534 1532 1529 1528 1526 1525 1524 1523 1522 1521 1520 1519 1517 1516 1515 1514
1517 1519 1522 1524 1526 1529 1531 1533 1535 1536 1538 1538 1539 1539 1539 1539 1539 1539 1538 1538 1538 1537 1536 1535 1534 1533 1531 1530 1527 1523 1521 1520 1518 1518 1518 1517 1516 1515 1514 1513 1511 1510 1508
1517 1519 1521 1523 1525 1527 1530 1532 1534 1535 1536 1536 1537 1537 1537 1536 1536 1536 1535 1534 1534 1533 1532 1531 1530 1528 1527 1526 1524 1520 1515 1513 1511 1512 1512 1511 1510 1510 1509 1507 1506 1504 1502
1516 1518 1520 1522 1524 1526 1529 1531 1532 1533 1534 1535 1535 1535 1534 1534 1533 1533 1532 1531 1531 1530 1529 1528 1527 1525 1523 1523 1522 1520 1516 1510 1507 1503 1503 1504 1504 1503 1502 1501 1499 1497 1495
1515 1518 1520 1522 1524 1526 1528 1529 1531 1532 1532 1533 1533 1533 1532 1532 1531 1530 1529 1529 1528 1527 1525 1524 1523 1522 1520 1518 1518 1516 1515 1511 1507 1499 1497 1497 1497 1496 1495 1493 1492 1490 1488
1515 1517 1519 1521 1523 1525 1527 1528 1530 1530 1531 1531 1531 1531 1530 1530 1529 1528 1527 1526 1525 1524 1522 1521 1520 1518 1516 1514 1513 1511 1509 1507 1504 1499 1491 1488 1487 1487 1486 1485 1483 1481 1479
1514 1517 1519 1521 1522 1524 1526 1527 1528 1529 1529 1529 1529 1528 1528 1527 1526 1525 1524 1523 1522 1520 1519 1517 1515 1514 1512 1510 1508 1506 1504 1501 1498 1494 1487 1481 1478 1477 1476 1475 1474 1472 1470